{"data":{"norad_id":46955,"intl_designator":"2020-085AC","name":"DRAGRACER 2 (AUGURY)","alt_names":[],"object_type":"PAYLOAD","status":"ACTIVE","operator":null,"country":"US","launch_date":"2020-11-20","launch_site_code":"RLLB","launch_vehicle":null,"mission":null,"orbit_class":"UNKNOWN","rcs_meters":null,"size_class":null,"mass_kg":null,"dimensions":null,"purposes":[],"wikipedia_slug":null,"has_3d_model":false,"image_url":null,"decayed_at":null,"tle_current":{"epoch":"2026-09-20T00:49:27.434784Z","epoch_age_seconds":66027,"freshness":"FRESH","line1":"1 46955U 20085AC  26263.03434531  .00043843  00000+0  25285-3 0  9992","line2":"2 46955  97.5698 107.7688 0002321 256.4935 103.6073 15.78569834326797","mean_motion":15.78569834,"eccentricity":0.0002321,"inclination_deg":97.5698,"raan_deg":107.7688,"arg_perigee_deg":256.4935,"mean_anomaly_deg":103.6073,"bstar":0.00025285,"rev_number":32679,"period_min":91.221811603426,"perigee_km":332.93395148265,"apogee_km":336.04995384248,"semimajor_km":6712.6289526626,"source":"CELESTRAK","updated_at":"2026-09-20T09:00:14.802420Z"}}}